Regional Weather Roundup
Issued by NWS

Home | Current Version | Previous Version | Text Only | Print | Product List | Glossary On
Versions: 1 2 3 4 5 6 7 8 9 10 11 12 13 14 15 16 17 18 19 20 21 22 23 24 25 26 27 28 29 30 31 32 33 34 35 36 37 38 39 40 41 42 43 44 45 46 47 48 49 50
000
ASUS43 KMKX 031621
RWRWI

WISCONSIN REGIONAL WEATHER ROUNDUP
NATIONAL WEATHER SERVICE MILWAUKEE/SULLIVAN WI
1100 AM CDT SUN MAY 03 2015

NOTE: "FAIR" INDICATES FEW OR NO CLOUDS BELOW 12,000 FEET WITH NO
SIGNIFICANT WEATHER AND/OR OBSTRUCTIONS TO VISIBILITY.

WIZ001-002-006>008-014>016-023>028-031700-
NORTHWEST WISCONSIN

CITY           SKY/WX    TMP DP  RH WIND       PRES   REMARKS
SUPERIOR ARPT  MOSUNNY   72  55  55 SW9       29.74R
ASHLAND        MOSUNNY   74  53  48 VRB6      29.75R
HAYWARD        MOSUNNY   70  52  52 SW12      29.78R
SIREN          SUNNY     69  51  53 SW9       29.79S
CUMBERLAND     MOSUNNY   66  50  55 S7        29.81S
RICE LAKE      MOSUNNY   69  51  53 S9        29.82S
CHETEK         MOSUNNY   68  54  60 S7        29.80F
LADYSMITH      MOSUNNY   68  53  58 S9        29.83S
EAU CLAIRE     MOSUNNY   70  51  51 SW7       29.80R
MENOMONIE      PTSUNNY   69  52  54 S7        29.81R
NEW RICHMOND   MOSUNNY   69  52  53 S9        29.79S
OSCEOLA        MOSUNNY   68  53  60 S5        29.82R
$$

WIZ003>005-009-010-017-018-031700-
NORTH CENTRAL WISCONSIN

CITY           SKY/WX    TMP DP  RH WIND       PRES   REMARKS
MANITOWISH WTR SUNNY     69  53  55 SW9       29.80R
ARBOR VITAE    SUNNY     72  55  54 SW10G16   29.81R
WOODRUFF       SUNNY     72  55  54 SW10G16   29.81R
RHINELANDER    SUNNY     69  51  52 S12G21    29.82F
EAGLE RIVER    SUNNY     69  49  48 SW8       29.81R
LAND O LAKES   MOSUNNY   71  49  46 S7        29.81R
PHILLIPS       SUNNY     67  52  59 SW10      29.80S
TOMAHAWK       SUNNY     70  52  53 S5        29.82F
MEDFORD        MOSUNNY   67  52  57 S13       29.82F
MERRILL        MOSUNNY   69  52  55 S8        29.83F
$$

WIZ029-030-035-036-043>047-031700-
CENTRAL WISCONSIN

CITY           SKY/WX    TMP DP  RH WIND       PRES   REMARKS
WAUSAU         PTSUNNY   69  50  50 S12       29.83F
MOSINEE        MOSUNNY   70  52  52 S12G17    29.86F
MARSHFIELD     PTSUNNY   72  50  45 SW12      29.84F
STEVENS POINT  CLOUDY    69  49  48 S13       29.86S
WAUPACA        PTSUNNY   74  50  42 SW9       29.87F
WAUTOMA        CLOUDY    72  50  45 SW12      29.87F
WISC RAPIDS    PTSUNNY   71  48  43 S12       29.87S
CAMP DOUGLAS   PTSUNNY   72  52  49 S12       29.84S
$$

WIZ011>013-019>022-031-037>040-048>050-031700-
NORTHEAST WISCONSIN

CITY           SKY/WX    TMP DP  RH WIND       PRES   REMARKS
ANTIGO         PTSUNNY   68  51  55 SW12G18   29.86S
SHAWANO        PTSUNNY   73  50  43 SW9       29.86F
OCONTO         PTSUNNY   73  51  45 W8        29.86S
STURGEON BAY   PTSUNNY   73  50  43 S14       29.89S
GREEN BAY      PTSUNNY   71  50  47 SW15      29.88S
MANITOWOC      PTSUNNY   68  49  50 S15       29.90S
APPLETON       PTSUNNY   72  48  43 SW14      29.89R
CLINTONVILLE   CLOUDY    70  48  46 SW12G18   29.87S
OSHKOSH        PTSUNNY   73  51  46 S17       29.88S
$$

WIZ032>034-041-042-053>061-031700-
SOUTHWEST WISCONSIN

CITY           SKY/WX    TMP DP  RH WIND       PRES   REMARKS
LA CROSSE      CLOUDY    71  50  47 S10       29.83R
SPARTA         CLOUDY    71  49  46 S13G18    29.84F
VIROQUA        CLOUDY    69  52  54 S13       29.86F
BOSCOBEL       CLOUDY    72  53  51 S14G20    29.86S
PRAIRIE DU CHI CLOUDY    70  50  50 S8        29.86S
PLATTEVILLE    CLOUDY    65  53  65 S16       29.90R
$$

WIZ056-057-062-063-064-067-068-031700-
SOUTH CENTRAL WISCONSIN

CITY           SKY/WX    TMP DP  RH WIND       PRES   REMARKS
REEDSBURG      CLOUDY    68  52  56 S12       29.87S
BARABOO/DELLS  NOT AVBL
LONE ROCK      CLOUDY    72  54  53 S14G20    29.87S
MINERAL POINT  CLOUDY    70  52  52 SW14G22   29.89S
MADISON        CLOUDY    67  50  54 S10       29.89F
MIDDLETON      CLOUDY    70  49  47 SW12      29.90S
WATERTOWN      PTSUNNY   69  51  52 S8        29.91S
MONROE         PTSUNNY   68  54  60 S22G30    29.91R
JANESVILLE     PTSUNNY   73  50  43 SW12G23   29.92S
$$

WIZ051-052-058>065-066-070>072-031700-
SOUTHEAST WISCONSIN

CITY           SKY/WX    TMP DP  RH WIND       PRES   REMARKS
MILWAUKEE      CLOUDY    70  45  40 S15       29.94R
WAUKESHA       PTSUNNY   61  46  59 S7        29.95S
MILWAUKEE/TIMM CLOUDY    68  43  40 SW10G21   29.94R
RACINE         PTSUNNY   68  46  45 S9        29.96R
BURLINGTON     CLOUDY    72  46  40 S14       29.93F
KENOSHA        PTSUNNY   72  48  42 SW13      29.95R
FOND DU LAC    PTSUNNY   74  48  39 SW14G26   29.88S
SHEBOYGAN      PTSUNNY   75  48  38 S20G25    29.90F
WEST BEND      PTSUNNY   70  41  35 S10       29.91S
JUNEAU         PTSUNNY   69  49  49 S14       29.91S
$$

LSZ147-162-031700-
LAKE SUPERIOR

STATION/POSITION TIME  TEMP    WIND        PRES    WAVE
                       AIR SEA DIR/SP/G            HT/PER
                 (UTC) (F)     (DEG/KT/KT) (MB)    (FT/S)
W MID LAKE BUOY  1550   43 35  200/  8/ 10 1007.4R   1
DEVILS ISLAND    1600   59     210/  8/ 11 1006.6F
PORT WING        1600   66     260/  8/ 12 1007.1
SAXON HARBOR     1600           60/  7     1007.5R
$$

LMZ867-665-643>646-031700-
LAKE MICHIGAN

STATION/POSITION TIME  TEMP    WIND        PRES    WAVE
                       AIR SEA DIR/SP/G            HT/PER
                 (UTC) (F)     (DEG/KT/KT) (MB)    (FT/S)
CHAMBERS ISLAND  1500   64     180/  9/ 19 1011.5F
NORTHPORT PIER   1500   56      CALM  / 16 1011.9R
KEWAUNEE LAKESHO 1500   49     170/ 12/ 13 1011.4F
SHEBOYGAN LAKESH 1600   51     170/ 21/ 22 1013.1F
PORT WASHINGTON  1540   52     130/  3/  4 1013.9F
ATWATER BUOY     1600   49     160/ 10/ 14 1014.7S
MILWAUKEE LAKESH 1600          200/ 12/ 14   N/A
KENOSHA   LAKESH 1600   51     170/ 11/ 14 1014.2R
$$

TC  - TEMPERATURE IN CELSIUS
VSB - VISIBILITY IN STATUTE MILES
WCI - WIND CHILL INDEX
HX  - HEAT INDEX



USA.gov is the U.S. government's official web portal to all federal, state and local government web resources and services.